When you browse on this site, cookies collect data to enhance your experience and personalize the content and advertising you see.
Visit our Privacy Policy to learn more. By continuing to use the site, you agree to this use of cookies and data.
  • In Hungary
  • List of Countries
  • For 7 days
  • Water Temperature
  • Weather Map
  • News
  • Weather Widgets
  • user-avatar
    Login

    Hourly Weather Gilib

    Today, 19 October, Saturday

    Time Temperature Precipitation Wind Pressure Humidity
    00:00 +10°C° 0 mm 1 mps 612 mmHg 54%
    01:00 +10°C° 0 mm 1 mps 612 mmHg 55%
    02:00 +9°C° 0 mm 1 mps 611 mmHg 55%
    03:00 +9°C° 0 mm 1 mps 611 mmHg 56%
    04:00 +9°C° 0 mm 1 mps 612 mmHg 56%
    05:00 +9°C° 0 mm 1 mps 612 mmHg 56%
    06:00 +9°C° 0 mm 1 mps 612 mmHg 56%
    07:00 +11°C° 0 mm 1 mps 613 mmHg 51%
    08:00 +13°C° 0 mm 1 mps 614 mmHg 45%
    09:00 +15°C° 0 mm 1 mps 615 mmHg 40%
    10:00 +15°C° 0.1 mm 1 mps 615 mmHg 42%
    11:00 +16°C° 0.1 mm 1 mps 615 mmHg 43%
    12:00 +16°C° 0.1 mm 1 mps 615 mmHg 45%
    13:00 +16°C° 0.3 mm 1 mps 615 mmHg 47%
    14:00 +15°C° 0.3 mm 1 mps 614 mmHg 50%
    15:00 +15°C° 0.3 mm 1 mps 614 mmHg 52%
    16:00 +13°C° 0.1 mm 1 mps 614 mmHg 60%
    17:00 +11°C° 0.1 mm 0 mps 613 mmHg 69%
    18:00 +9°C° 0.1 mm 0 mps 613 mmHg 77%
    19:00 +9°C° 0 mm 0 mps 613 mmHg 77%
    20:00 +8°C° 0 mm 0 mps 613 mmHg 78%
    21:00 +8°C° 0 mm 0 mps 613 mmHg 78%
    22:00 +8°C° 0 mm 0 mps 613 mmHg 79%
    23:00 +8°C° 0 mm 0 mps 613 mmHg 79%

    Tomorrow, 20 October, Sunday

    Time Temperature Precipitation Wind Pressure Humidity
    00:00 +8°C° 0 mm 0 mps 613 mmHg 79%
    01:00 +7°C° 0 mm 0 mps 613 mmHg 79%
    02:00 +8°C° 0 mm 1 mps 613 mmHg 80%
    03:00 +8°C° 0 mm 1 mps 613 mmHg 80%
    04:00 +8°C° 0 mm 1 mps 613 mmHg 80%
    05:00 +8°C° 0 mm 1 mps 613 mmHg 80%
    06:00 +7°C° 0 mm 0 mps 613 mmHg 80%
    07:00 +9°C° 0 mm 1 mps 614 mmHg 73%
    08:00 +11°C° 0 mm 1 mps 615 mmHg 67%
    09:00 +13°C° 0 mm 1 mps 616 mmHg 60%
    10:00 +14°C° 0.1 mm 1 mps 616 mmHg 59%
    11:00 +14°C° 0.1 mm 2 mps 616 mmHg 59%
    12:00 +15°C° 0.1 mm 2 mps 616 mmHg 58%
    13:00 +14°C° 0.5 mm 2 mps 616 mmHg 62%
    14:00 +14°C° 0.5 mm 2 mps 616 mmHg 65%
    15:00 +14°C° 0.5 mm 2 mps 615 mmHg 69%
    16:00 +12°C° 0.2 mm 2 mps 615 mmHg 76%
    17:00 +11°C° 0.2 mm 1 mps 615 mmHg 82%
    18:00 +10°C° 0.2 mm 1 mps 614 mmHg 89%
    19:00 +8°C° 0 mm 0 mps 614 mmHg 89%
    20:00 +8°C° 0 mm 0 mps 614 mmHg 89%
    21:00 +7°C° 0 mm 0 mps 614 mmHg 90%
    22:00 +7°C° 0 mm 0 mps 614 mmHg 89%
    23:00 +7°C° 0 mm 0 mps 614 mmHg 89%

    Day after tomorrow, 21 October, Monday

    Time Temperature Precipitation Wind Pressure Humidity
    00:00 +8°C° 0 mm 1 mps 614 mmHg 88%
    01:00 +8°C° 0 mm 1 mps 614 mmHg 88%
    02:00 +8°C° 0 mm 1 mps 614 mmHg 87%
    03:00 +8°C° 0 mm 1 mps 614 mmHg 86%
    04:00 +8°C° 0 mm 1 mps 614 mmHg 86%
    05:00 +7°C° 0 mm 1 mps 614 mmHg 86%
    06:00 +7°C° 0 mm 1 mps 614 mmHg 86%
    07:00 +9°C° 0 mm 1 mps 615 mmHg 78%
    08:00 +11°C° 0 mm 1 mps 616 mmHg 70%
    09:00 +12°C° 0 mm 1 mps 616 mmHg 62%
    10:00 +13°C° 0 mm 1 mps 617 mmHg 62%
    11:00 +14°C° 0 mm 1 mps 617 mmHg 62%
    12:00 +14°C° 0 mm 2 mps 617 mmHg 62%
    13:00 +14°C° 0.1 mm 2 mps 616 mmHg 66%
    14:00 +13°C° 0.1 mm 2 mps 616 mmHg 70%
    15:00 +13°C° 0.1 mm 1 mps 616 mmHg 74%
    16:00 +12°C° 0 mm 1 mps 615 mmHg 80%
    17:00 +11°C° 0 mm 1 mps 615 mmHg 87%
    18:00 +9°C° 0 mm 0 mps 615 mmHg 93%
    19:00 +8°C° 0 mm 0 mps 614 mmHg 92%
    20:00 +9°C° 0 mm 1 mps 614 mmHg 92%
    21:00 +8°C° 0 mm 1 mps 614 mmHg 91%
    22:00 +8°C° 0 mm 1 mps 614 mmHg 90%
    23:00 +8°C° 0 mm 1 mps 614 mmHg 90%

    22 October, Tuesday

    Time Temperature Precipitation Wind Pressure Humidity
    00:00 +8°C° 0 mm 1 mps 613 mmHg 90%
    01:00 +8°C° 0 mm 1 mps 613 mmHg 88%
    02:00 +7°C° 0 mm 1 mps 613 mmHg 86%
    03:00 +7°C° 0 mm 1 mps 613 mmHg 84%
    04:00 +7°C° 0 mm 1 mps 613 mmHg 82%
    05:00 +7°C° 0 mm 1 mps 613 mmHg 80%
    06:00 +7°C° 0 mm 1 mps 613 mmHg 79%
    07:00 +9°C° 0 mm 1 mps 614 mmHg 71%
    08:00 +10°C° 0 mm 1 mps 615 mmHg 64%
    09:00 +12°C° 0 mm 1 mps 615 mmHg 56%
    10:00 +13°C° 0 mm 1 mps 616 mmHg 56%
    11:00 +14°C° 0 mm 2 mps 616 mmHg 55%
    12:00 +14°C° 0 mm 2 mps 616 mmHg 55%
    13:00 +14°C° 0 mm 2 mps 616 mmHg 59%
    14:00 +14°C° 0 mm 2 mps 615 mmHg 63%
    15:00 +14°C° 0 mm 2 mps 615 mmHg 67%
    16:00 +12°C° 0 mm 1 mps 615 mmHg 75%
    17:00 +11°C° 0 mm 1 mps 614 mmHg 84%
    18:00 +8°C° 0 mm 0 mps 614 mmHg 93%
    19:00 +8°C° 0 mm 0 mps 614 mmHg 92%
    20:00 +7°C° 0 mm 0 mps 613 mmHg 92%
    21:00 +7°C° 0 mm 0 mps 613 mmHg 91%
    22:00 +7°C° 0 mm 0 mps 613 mmHg 90%
    23:00 +6°C° 0 mm 0 mps 613 mmHg 90%

    23 October, Wednesday

    Time Temperature Precipitation Wind Pressure Humidity
    00:00 +6°C° 0 mm 0 mps 613 mmHg 89%
    01:00 +6°C° 0 mm 0 mps 613 mmHg 88%
    02:00 +6°C° 0 mm 0 mps 613 mmHg 86%
    03:00 +7°C° 0 mm 1 mps 613 mmHg 84%
    04:00 +6°C° 0 mm 0 mps 613 mmHg 81%
    05:00 +5°C° 0 mm 0 mps 613 mmHg 78%
    06:00 +5°C° 0 mm 0 mps 613 mmHg 75%
    07:00 +7°C° 0 mm 1 mps 613 mmHg 72%
    08:00 +9°C° 0 mm 1 mps 614 mmHg 70%
    09:00 +10°C° 0 mm 1 mps 615 mmHg 67%
    10:00 +10°C° 0 mm 2 mps 615 mmHg 63%
    11:00 +12°C° 0 mm 2 mps 615 mmHg 60%
    12:00 +13°C° 0 mm 2 mps 616 mmHg 56%
    13:00 +12°C° 0 mm 2 mps 615 mmHg 61%
    14:00 +12°C° 0 mm 2 mps 615 mmHg 67%
    15:00 +12°C° 0 mm 2 mps 615 mmHg 73%
    16:00 +9°C° 0 mm 2 mps 614 mmHg 80%
    17:00 +9°C° 0 mm 1 mps 614 mmHg 87%
    18:00 +8°C° 0 mm 1 mps 614 mmHg 95%
    19:00 +7°C° 0 mm 0 mps 614 mmHg 94%
    20:00 +7°C° 0 mm 0 mps 614 mmHg 93%
    21:00 +6°C° 0 mm 0 mps 614 mmHg 91%
    22:00 +6°C° 0 mm 0 mps 614 mmHg 91%
    23:00 +7°C° 0 mm 1 mps 614 mmHg 91%

    24 October, Thursday

    Time Temperature Precipitation Wind Pressure Humidity
    00:00 +7°C° 0 mm 1 mps 614 mmHg 92%
    01:00 +7°C° 0 mm 1 mps 613 mmHg 89%
    02:00 +6°C° 0 mm 1 mps 613 mmHg 87%
    03:00 +6°C° 0 mm 1 mps 613 mmHg 85%
    04:00 +6°C° 0 mm 1 mps 613 mmHg 83%
    05:00 +6°C° 0 mm 1 mps 613 mmHg 82%
    06:00 +5°C° 0 mm 1 mps 613 mmHg 81%
    07:00 +7°C° 0 mm 1 mps 613 mmHg 73%
    08:00 +9°C° 0 mm 1 mps 614 mmHg 66%
    09:00 +11°C° 0 mm 1 mps 615 mmHg 58%
    10:00 +11°C° 0 mm 1 mps 615 mmHg 56%
    11:00 +12°C° 0 mm 1 mps 615 mmHg 53%
    12:00 +13°C° 0 mm 2 mps 616 mmHg 51%
    13:00 +13°C° 0 mm 2 mps 615 mmHg 52%
    14:00 +13°C° 0 mm 1 mps 615 mmHg 54%
    15:00 +13°C° 0 mm 1 mps 615 mmHg 56%
    16:00 +11°C° 0 mm 1 mps 614 mmHg 65%
    17:00 +9°C° 0 mm 1 mps 614 mmHg 75%
    18:00 +7°C° 0 mm 1 mps 613 mmHg 84%
    19:00 +7°C° 0 mm 1 mps 613 mmHg 77%
    20:00 +7°C° 0 mm 1 mps 613 mmHg 70%
    21:00 +6°C° 0 mm 2 mps 613 mmHg 63%
    22:00 +6°C° 0 mm 2 mps 613 mmHg 60%
    23:00 +6°C° 0 mm 2 mps 613 mmHg 56%
    Show more